Location: LDNL
(36.4545°S, 141.6685°E)
Time: 16:15:37
(UTC+10:00)

Courier 1B - Pass Details

Date: 16 August 2022
Orbit: 962 x 1209 km, 28.3° (Epoch: 25 September)

Event Time Altitude Azimuth Distance (km) Brightness Sun altitude
Rises 20:55:30 0° 317° (NW) 3,811 11.0 -35.6°
Reaches altitude 10° 20:58:39 10° 330° (NNW) 2,903 10.1 -36.3°
Enters shadow 21:00:17 16° 340° (NNW) 2,509 9.7 -36.6°
